Time,TemperatureF,DewpointF,PressureIn,WindDirection,WindDirectionDegrees,WindSpeedMPH,WindSpeedGustMPH,Humidity,HourlyPrecipIn,Conditions,Clouds,dailyrainin,SoftwareType,DateUTC
2013-01-25 00:14:00,43.5,37.0,30.15,South,169,11.0,16.0,78,0.02,,,0.00,weatherlink.com 1.10,2013-01-25 08:14:00,
2013-01-25 00:29:00,43.6,37.0,30.15,SSE,152,5.0,15.0,78,0.03,,,0.01,weatherlink.com 1.10,2013-01-25 08:29:00,
2013-01-25 00:44:00,43.6,37.0,30.16,South,172,4.0,16.0,77,0.01,,,0.01,weatherlink.com 1.10,2013-01-25 08:44:00,
2013-01-25 00:59:00,43.5,37.0,30.15,SE,140,8.0,17.0,78,0.01,,,0.01,weatherlink.com 1.10,2013-01-25 08:59:00,
2013-01-25 01:14:00,43.2,37.0,30.14,South,184,8.0,16.0,79,0.00,,,0.01,weatherlink.com 1.10,2013-01-25 09:14:00,
2013-01-25 01:29:00,42.9,37.0,30.14,SSE,155,10.0,17.0,79,0.00,,,0.01,weatherlink.com 1.10,2013-01-25 09:29:00,
2013-01-25 01:44:00,42.7,37.0,30.14,South,172,5.0,15.0,80,0.00,,,0.01,weatherlink.com 1.10,2013-01-25 09:44:00,
2013-01-25 01:59:00,42.5,37.0,30.14,South,178,3.0,18.0,81,0.00,,,0.01,weatherlink.com 1.10,2013-01-25 09:59:00,
2013-01-25 02:14:00,42.5,37.0,30.14,South,170,3.0,14.0,81,0.00,,,0.01,weatherlink.com 1.10,2013-01-25 10:14:00,
2013-01-25 02:29:00,42.6,38.0,30.15,SSE,148,6.0,13.0,82,0.00,,,0.01,weatherlink.com 1.10,2013-01-25 10:29:00,
2013-01-25 02:44:00,42.5,37.0,30.14,South,177,3.0,8.0,82,0.00,,,0.01,weatherlink.com 1.10,2013-01-25 10:44:00,
2013-01-25 02:59:00,42.7,38.0,30.14,SSE,161,5.0,10.0,82,0.00,,,0.01,weatherlink.com 1.10,2013-01-25 10:59:00,
2013-01-25 03:14:00,42.7,38.0,30.13,SSE,151,2.0,10.0,82,0.00,,,0.01,weatherlink.com 1.10,2013-01-25 11:14:00,
2013-01-25 03:29:00,42.5,37.0,30.11,South,182,10.0,12.0,82,0.00,,,0.01,weatherlink.com 1.10,2013-01-25 11:29:00,
2013-01-25 03:44:00,42.6,38.0,30.11,SSE,159,5.0,16.0,82,0.00,,,0.01,weatherlink.com 1.10,2013-01-25 11:44:00,
2013-01-25 03:59:00,42.6,38.0,30.11,SSE,157,10.0,17.0,82,0.00,,,0.01,weatherlink.com 1.10,2013-01-25 11:59:00,
2013-01-25 04:14:00,42.6,38.0,30.10,SSE,148,7.0,11.0,82,0.00,,,0.01,weatherlink.com 1.10,2013-01-25 12:14:00,
2013-01-25 04:29:00,42.5,37.0,30.10,South,171,7.0,14.0,82,0.00,,,0.01,weatherlink.com 1.10,2013-01-25 12:29:00,
2013-01-25 04:45:00,42.8,38.0,30.09,South,180,15.0,16.0,82,0.00,,,0.01,weatherlink.com 1.10,2013-01-25 12:45:00,
2013-01-25 05:00:00,43.2,37.0,30.09,South,182,9.0,17.0,80,0.00,,,0.01,weatherlink.com 1.10,2013-01-25 13:00:00,
2013-01-25 05:15:00,43.7,38.0,30.09,SSW,201,9.0,19.0,79,0.00,,,0.01,weatherlink.com 1.10,2013-01-25 13:15:00,
2013-01-25 05:30:00,43.4,38.0,30.09,SW,225,8.0,13.0,80,0.00,,,0.01,weatherlink.com 1.10,2013-01-25 13:30:00,
2013-01-25 05:45:00,43.1,38.0,30.09,SSE,160,9.0,14.0,81,0.00,,,0.01,weatherlink.com 1.10,2013-01-25 13:45:00,
2013-01-25 06:00:00,42.9,38.0,30.08,South,182,8.0,17.0,82,0.00,,,0.01,weatherlink.com 1.10,2013-01-25 14:00:00,
2013-01-25 06:15:00,42.7,38.0,30.08,SE,146,10.0,18.0,83,0.00,,,0.01,weatherlink.com 1.10,2013-01-25 14:15:00,
2013-01-25 06:30:00,42.7,38.0,30.08,SSE,153,9.0,18.0,83,0.00,,,0.01,weatherlink.com 1.10,2013-01-25 14:30:00,
2013-01-25 06:45:00,42.9,38.0,30.08,SSE,153,4.0,18.0,82,0.00,,,0.01,weatherlink.com 1.10,2013-01-25 14:45:00,
2013-01-25 07:00:00,42.9,38.0,30.08,South,169,7.0,17.0,83,0.00,,,0.01,weatherlink.com 1.10,2013-01-25 15:00:00,
2013-01-25 07:15:00,42.8,38.0,30.08,South,174,7.0,17.0,83,0.00,,,0.01,weatherlink.com 1.10,2013-01-25 15:15:00,
2013-01-25 07:30:00,42.4,38.0,30.08,SSE,159,5.0,19.0,85,0.00,,,0.01,weatherlink.com 1.10,2013-01-25 15:30:00,
2013-01-25 07:45:00,42.4,38.0,30.08,South,187,9.0,20.0,85,0.01,,,0.02,weatherlink.com 1.10,2013-01-25 15:45:00,
2013-01-25 08:00:00,42.2,38.0,30.08,South,179,4.0,15.0,85,0.01,,,0.02,weatherlink.com 1.10,2013-01-25 16:00:00,
2013-01-25 08:15:00,42.4,38.0,30.08,SSW,196,9.0,14.0,85,0.01,,,0.02,weatherlink.com 1.10,2013-01-25 16:15:00,
2013-01-25 08:30:00,42.5,38.0,30.08,SSE,168,6.0,17.0,84,0.01,,,0.02,weatherlink.com 1.10,2013-01-25 16:30:00,
2013-01-25 08:45:00,42.3,38.0,30.08,South,188,15.0,20.0,85,0.00,,,0.02,weatherlink.com 1.10,2013-01-25 16:45:00,
2013-01-25 09:00:00,42.0,38.0,30.08,South,190,9.0,16.0,86,0.01,,,0.03,weatherlink.com 1.10,2013-01-25 17:00:00,
2013-01-25 09:15:00,42.1,38.0,30.07,SSE,159,4.0,14.0,86,0.01,,,0.03,weatherlink.com 1.10,2013-01-25 17:15:00,
2013-01-25 09:30:00,42.2,38.0,30.07,ESE,118,4.0,11.0,86,0.01,,,0.03,weatherlink.com 1.10,2013-01-25 17:30:00,
2013-01-25 09:45:00,42.4,39.0,30.07,SSE,153,6.0,11.0,86,0.01,,,0.03,weatherlink.com 1.10,2013-01-25 17:45:00,
2013-01-25 10:00:00,42.4,38.0,30.07,SE,130,2.0,10.0,85,0.00,,,0.03,weatherlink.com 1.10,2013-01-25 18:00:00,
2013-01-25 10:15:00,42.7,39.0,30.07,SE,127,4.0,12.0,85,0.00,,,0.03,weatherlink.com 1.10,2013-01-25 18:15:00,
2013-01-25 10:30:00,43.1,39.0,30.07,SSE,151,10.0,17.0,84,0.00,,,0.03,weatherlink.com 1.10,2013-01-25 18:30:00,
2013-01-25 10:45:00,43.4,39.0,30.06,SSE,161,14.0,22.0,84,0.00,,,0.03,weatherlink.com 1.10,2013-01-25 18:45:00,
2013-01-25 11:00:00,43.6,39.0,30.04,SSE,164,4.0,16.0,84,0.00,,,0.03,weatherlink.com 1.10,2013-01-25 19:00:00,
2013-01-25 11:15:00,43.7,39.0,30.05,South,186,3.0,15.0,83,0.00,,,0.03,weatherlink.com 1.10,2013-01-25 19:15:00,
2013-01-25 11:30:00,44.0,39.0,30.05,SSW,201,5.0,16.0,83,0.00,,,0.03,weatherlink.com 1.10,2013-01-25 19:30:00,
2013-01-25 11:45:00,44.3,39.0,30.04,South,171,9.0,25.0,82,0.00,,,0.03,weatherlink.com 1.10,2013-01-25 19:45:00,
2013-01-25 12:00:00,44.2,39.0,30.03,SSW,194,10.0,19.0,82,0.00,,,0.03,weatherlink.com 1.10,2013-01-25 20:00:00,
2013-01-25 12:15:00,44.2,39.0,30.03,SSE,159,13.0,22.0,82,0.00,,,0.03,weatherlink.com 1.10,2013-01-25 20:15:00,
2013-01-25 12:30:00,44.1,39.0,30.03,SW,219,10.0,17.0,83,0.00,,,0.03,weatherlink.com 1.10,2013-01-25 20:30:00,
2013-01-25 12:45:00,44.5,39.0,30.03,SSE,163,4.0,18.0,82,0.00,,,0.03,weatherlink.com 1.10,2013-01-25 20:45:00,
2013-01-25 13:00:00,44.7,39.0,30.02,South,173,13.0,19.0,81,0.00,,,0.03,weatherlink.com 1.10,2013-01-25 21:00:00,
2013-01-25 13:15:00,44.9,39.0,30.01,SSW,194,7.0,17.0,80,0.00,,,0.03,weatherlink.com 1.10,2013-01-25 21:15:00,
2013-01-25 13:30:00,44.8,39.0,30.00,South,191,5.0,22.0,81,0.00,,,0.03,weatherlink.com 1.10,2013-01-25 21:30:00,
2013-01-25 13:45:00,45.4,39.0,29.99,SSE,158,10.0,18.0,79,0.00,,,0.03,weatherlink.com 1.10,2013-01-25 21:45:00,
2013-01-25 14:00:00,45.2,39.0,29.99,South,177,8.0,21.0,79,0.00,,,0.03,weatherlink.com 1.10,2013-01-25 22:00:00,
2013-01-25 14:15:00,44.9,39.0,29.98,South,172,7.0,17.0,79,0.00,,,0.03,weatherlink.com 1.10,2013-01-25 22:15:00,
2013-01-25 14:30:00,44.8,39.0,29.98,South,191,11.0,22.0,80,0.00,,,0.03,weatherlink.com 1.10,2013-01-25 22:30:00,
2013-01-25 14:46:00,44.9,39.0,29.97,SE,136,6.0,21.0,79,0.00,,,0.03,weatherlink.com 1.10,2013-01-25 22:46:00,
2013-01-25 15:00:00,44.7,39.0,29.97,South,175,12.0,20.0,79,0.00,,,0.03,weatherlink.com 1.10,2013-01-25 23:00:00,
2013-01-25 15:16:00,44.4,38.0,29.97,SSE,165,14.0,20.0,79,0.00,,,0.03,weatherlink.com 1.10,2013-01-25 23:16:00,
2013-01-25 15:31:00,44.3,38.0,29.97,South,174,10.0,18.0,79,0.00,,,0.03,weatherlink.com 1.10,2013-01-25 23:31:00,
2013-01-25 15:46:00,44.6,38.0,29.96,South,182,13.0,18.0,79,0.00,,,0.03,weatherlink.com 1.10,2013-01-25 23:46:00,
2013-01-25 16:01:00,44.3,38.0,29.97,South,186,7.0,17.0,79,0.00,,,0.03,weatherlink.com 1.10,2013-01-26 00:01:00,
2013-01-25 16:16:00,44.2,38.0,29.97,South,188,9.0,15.0,80,0.00,,,0.03,weatherlink.com 1.10,2013-01-26 00:16:00,
2013-01-25 16:31:00,44.3,39.0,29.96,South,179,11.0,14.0,80,0.00,,,0.03,weatherlink.com 1.10,2013-01-26 00:31:00,
2013-01-25 16:46:00,43.9,38.0,29.96,SSW,194,7.0,9.0,81,0.00,,,0.03,weatherlink.com 1.10,2013-01-26 00:46:00,
2013-01-25 17:01:00,43.3,38.0,29.96,South,177,5.0,12.0,82,0.00,,,0.03,weatherlink.com 1.10,2013-01-26 01:01:00,
2013-01-25 17:16:00,43.2,38.0,29.96,South,186,3.0,9.0,83,0.00,,,0.03,weatherlink.com 1.10,2013-01-26 01:16:00,
2013-01-25 17:31:00,42.8,38.0,29.95,SSE,154,3.0,7.0,83,0.00,,,0.03,weatherlink.com 1.10,2013-01-26 01:31:00,
2013-01-25 17:46:00,42.6,38.0,29.96,South,172,2.0,6.0,84,0.00,,,0.03,weatherlink.com 1.10,2013-01-26 01:46:00,
2013-01-25 18:01:00,42.6,38.0,29.95,South,173,2.0,8.0,84,0.00,,,0.03,weatherlink.com 1.10,2013-01-26 02:01:00,
2013-01-25 18:16:00,42.4,38.0,29.94,South,176,2.0,10.0,85,0.00,,,0.03,weatherlink.com 1.10,2013-01-26 02:16:00,
2013-01-25 18:31:00,42.2,38.0,29.94,SSE,167,3.0,5.0,85,0.00,,,0.03,weatherlink.com 1.10,2013-01-26 02:31:00,
2013-01-25 18:46:00,41.8,38.0,29.93,SSE,159,4.0,6.0,86,0.00,,,0.03,weatherlink.com 1.10,2013-01-26 02:46:00,
2013-01-25 19:01:00,41.1,37.0,29.93,SSE,159,1.0,3.0,86,0.00,,,0.03,weatherlink.com 1.10,2013-01-26 03:01:00,
2013-01-25 19:16:00,40.1,37.0,29.93,SSE,159,0.0,1.0,87,0.00,,,0.03,weatherlink.com 1.10,2013-01-26 03:16:00,
2013-01-25 19:31:00,39.4,36.0,29.93,SSE,159,0.0,1.0,88,0.00,,,0.03,weatherlink.com 1.10,2013-01-26 03:31:00,
2013-01-25 19:46:00,38.4,36.0,29.93,SSE,159,0.0,2.0,89,0.00,,,0.03,weatherlink.com 1.10,2013-01-26 03:46:00,
2013-01-25 20:01:00,38.3,36.0,29.93,SSE,159,1.0,3.0,90,0.00,,,0.03,weatherlink.com 1.10,2013-01-26 04:01:00,
2013-01-25 20:16:00,40.2,38.0,29.93,South,173,5.0,9.0,90,0.00,,,0.03,weatherlink.com 1.10,2013-01-26 04:16:00,
2013-01-25 20:31:00,41.1,38.0,29.93,South,184,2.0,7.0,88,0.00,,,0.03,weatherlink.com 1.10,2013-01-26 04:31:00,
2013-01-25 20:46:00,41.1,38.0,29.93,South,184,2.0,4.0,88,0.00,,,0.03,weatherlink.com 1.10,2013-01-26 04:46:00,
2013-01-25 21:01:00,40.7,38.0,29.93,South,184,2.0,4.0,89,0.00,,,0.03,weatherlink.com 1.10,2013-01-26 05:01:00,
2013-01-25 21:16:00,40.3,38.0,29.93,SSW,198,4.0,5.0,91,0.00,,,0.03,weatherlink.com 1.10,2013-01-26 05:16:00,
2013-01-25 21:31:00,40.2,38.0,29.93,SSW,199,3.0,7.0,90,0.00,,,0.03,weatherlink.com 1.10,2013-01-26 05:31:00,
2013-01-25 21:46:00,39.8,37.0,29.93,WNW,300,1.0,5.0,89,0.00,,,0.03,weatherlink.com 1.10,2013-01-26 05:46:00,
2013-01-25 22:01:00,39.5,37.0,29.93,WNW,300,1.0,3.0,89,0.00,,,0.03,weatherlink.com 1.10,2013-01-26 06:01:00,
2013-01-25 22:16:00,39.1,36.0,29.93,NNW,338,2.0,5.0,89,0.00,,,0.03,weatherlink.com 1.10,2013-01-26 06:16:00,
2013-01-25 22:31:00,38.8,36.0,29.93,NNW,338,3.0,3.0,88,0.00,,,0.03,weatherlink.com 1.10,2013-01-26 06:31:00,
2013-01-25 22:46:00,38.3,35.0,29.93,NNW,338,1.0,2.0,89,0.00,,,0.03,weatherlink.com 1.10,2013-01-26 06:46:00,
2013-01-25 23:01:00,38.1,35.0,29.94,NNW,338,0.0,2.0,88,0.00,,,0.03,weatherlink.com 1.10,2013-01-26 07:01:00,
2013-01-25 23:16:00,38.0,35.0,29.95,NNW,338,1.0,1.0,88,0.00,,,0.03,weatherlink.com 1.10,2013-01-26 07:16:00,
2013-01-25 23:31:00,37.7,35.0,29.95,NNW,338,0.0,2.0,88,0.00,,,0.03,weatherlink.com 1.10,2013-01-26 07:31:00,
2013-01-25 23:46:00,37.3,34.0,29.95,NNW,338,2.0,2.0,88,0.00,,,0.03,weatherlink.com 1.10,2013-01-26 07:46:00,